This is the latest recevied weather packets stored in our database for station/object N0QWM. If no packets are shown the sender has not sent any weather packets the latest 10 day(s).
| Time | Temp. | Humidity | Pressure | Rain* | Wind** | Luminosity | Snow |
|---|---|---|---|---|---|---|---|
| 1787942228 | 33.89° C | 50% | 1022 hPa | 0 mm | - | 687 W/m² | - |
| 1787941923 | 33.89° C | 50% | 1021.9 hPa | 0 mm | - | 678 W/m² | - |
| 1787941623 | 33.33° C | 51% | 1022.2 hPa | 0 mm | - | 654 W/m² | - |
| 1787941323 | 33.33° C | 52% | 1022.1 hPa | 0 mm | - | 577 W/m² | - |
| 1787941022 | 33.89° C | 51% | 1022.1 hPa | 0 mm | - | 109 W/m² | - |
| 1787940721 | 34.44° C | 50% | 1022.2 hPa | 0 mm | - | 637 W/m² | - |
| 1787940420 | 34.44° C | 51% | 1022.2 hPa | 0 mm | - | 674 W/m² | - |
| 1787940114 | 33.89° C | 51% | 1022.2 hPa | 0 mm | - | 688 W/m² | - |
| 1787939814 | 33.89° C | 49% | 1022.3 hPa | 0 mm | - | 661 W/m² | - |
| 1787939508 | 34.44° C | 49% | 1022.5 hPa | 0 mm | - | 615 W/m² | - |
| 1787939203 | 33.89° C | 50% | 1022.6 hPa | 0 mm | - | 645 W/m² | - |
| 1787938903 | 33.89° C | 50% | 1022.4 hPa | 0 mm | - | 729 W/m² | - |
| 1787938602 | 33.33° C | 54% | 1022.3 hPa | 0 mm | - | 736 W/m² | - |
| 1787938298 | 33.33° C | 53% | 1022.5 hPa | 0 mm | - | 717 W/m² | - |
| 1787937993 | 33.89° C | 54% | 1022.6 hPa | 0 mm | - | 171 W/m² | - |
| 1787937688 | 33.89° C | 54% | 1022.4 hPa | 0 mm | - | 725 W/m² | - |
| 1787937385 | 33.33° C | 54% | 1022.6 hPa | 0 mm | - | 717 W/m² | - |
| 1787937081 | 33.33° C | 57% | 1022.6 hPa | 0 mm | - | 592 W/m² | - |
| 1787936780 | 31.67° C | 60% | 1022.5 hPa | 0 mm | - | 704 W/m² | - |
| 1787936475 | 32.22° C | 58% | 1022.6 hPa | 0 mm | - | 130 W/m² | - |
| 1787936175 | 32.78° C | 60% | 1022.5 hPa | 0 mm | - | 219 W/m² | - |
| 1787935870 | 32.78° C | 58% | 1022.4 hPa | 0 mm | - | 683 W/m² | - |
| 1787935565 | 32.78° C | 59% | 1022.6 hPa | 0 mm | - | 614 W/m² | - |
| 1787935261 | 32.78° C | 59% | 1022.7 hPa | 0 mm | - | 644 W/m² | - |
| 1787934950 | 32.78° C | 58% | 1022.6 hPa | 0 mm | - | 678 W/m² | - |
* Rain latest hour (hover to see other rain measurements)
** Current wind speed in m/s (hover to see current wind gust speed)